Location: Bright Sky Observatory
(40.7821°N, 74.2425°W)
Time: 01:50:57
(UTC-05:00)

Amateur Radio Satellites - All Passes

Search period start: 13 February 2016 01:20
Search period end: 14 February 2016 01:20
Location: Bright Sky Observatory, 40.7821°N, 74.2425°W

Satellite Date Start Highest point End Downlink Frequencies (MHz)
Time Altitude Azimuth
Gurwin Techsat 1B 13 Feb 01:26:58 01:31:33 29° 95° (E) 01:36:08 435.225
AIST 2 13 Feb 01:32:57 01:35:22 15° 42° (NE) 01:37:45 435.215
DANDE 13 Feb 01:41:53 01:49:50 82° 97° (E) 01:58:22 436.750
ITUPSAT 1 13 Feb 01:45:28 01:50:03 46° 261° (W) 01:54:40 437.325
ITAMSAT 1 13 Feb 01:45:35 01:49:36 22° 94° (E) 01:53:36 435.822/435.867
PHONESAT 2.4 13 Feb 01:46:01 01:49:18 88° 191° (S) 01:52:36 2401.200-2431.200
BEESAT 13 Feb 01:51:50 01:56:17 39° 262° (W) 02:00:46 436.000
BEESAT 3 13 Feb 01:55:58 01:59:14 25° 247° (WSW) 02:02:28 437.485
YUBILEINY 13 Feb 02:02:48 02:10:50 42° 87° (E) 02:18:55 435.215
Oscar 19 13 Feb 02:07:56 02:12:48 44° 290° (WNW) 02:17:38 437.125/150
STARS 13 Feb 02:10:29 02:14:03 25° 67° (ENE) 02:17:38 437.465
JAS-2 13 Feb 02:14:19 02:19:47 60° 289° (WNW) 02:24:53 435.910
CUSAT 1 13 Feb 02:23:43 02:31:01 36° 289° (WNW) 02:38:07 437.405
BEESAT 2 13 Feb 02:26:47 02:29:37 19° 249° (WSW) 02:32:26 435.950
KKS-1 13 Feb 02:35:41 02:40:09 86° 78° (ENE) 02:44:38 437.445
SWISSCUBE 13 Feb 02:49:10 02:49:40 10° 271° (W) 02:50:10 437.505
MOZHAYETS 4 13 Feb 02:54:17 02:58:41 50° 73° (ENE) 03:03:09
Gurwin Techsat 1B 13 Feb 03:06:43 03:11:31 35° 292° (WNW) 03:16:18 435.225
AO-7 13 Feb 03:07:06 03:14:43 38° 98° (E) 03:22:15 29.400- 29.500
AIST 2 13 Feb 03:10:12 03:14:19 68° 240° (WSW) 03:18:22 435.215
Cosmos 2491 13 Feb 03:11:56 03:19:37 36° 275° (W) 03:27:20 435.465 / 435.565
Cosmos 2504 13 Feb 03:21:31 03:28:37 29° 82° (E) 03:35:53 435.465 / 435.565
PHONESAT 2.4 13 Feb 03:23:18 03:26:28 48° 198° (SSW) 03:29:38 2401.200-2431.200
ITAMSAT 1 13 Feb 03:24:17 03:29:16 45° 290° (WNW) 03:34:13 435.822/435.867
DANDE 13 Feb 03:27:25 03:33:45 24° 296° (WNW) 03:40:17 436.750
SO-50 13 Feb 03:38:47 03:43:31 52° 117° (ESE) 03:48:19 436.795
CUBESAT XI-V 13 Feb 03:45:51 03:49:09 19° 65° (ENE) 03:52:30 437.345
STARS 13 Feb 03:46:27 03:50:18 29° 263° (W) 03:54:10 437.465
HORYU 2 13 Feb 03:54:32 03:58:33 33° 97° (E) 04:02:34 437.375
YUBILEINY 13 Feb 03:59:21 04:07:33 43° 287° (WNW) 04:15:52 435.215
M-CUBED/EXP-1 PRIME 13 Feb 04:32:00 04:35:28 90° 78° (ENE) 04:39:10 437.505
MOZHAYETS 4 13 Feb 04:33:28 04:36:09 15° 269° (W) 04:38:51
AUBIESAT-1 13 Feb 04:38:35 04:42:06 88° 100° (E) 04:45:51 437.475
AO-7 13 Feb 04:59:43 05:07:36 49° 297° (WNW) 05:15:26 29.400- 29.500
PHONESAT 2.4 13 Feb 05:01:38 05:03:15 13° 212° (SSW) 05:04:53 2401.200-2431.200
Cosmos 2504 13 Feb 05:12:49 05:21:21 62° 282° (WNW) 05:30:12 435.465 / 435.565
LilacSat-2 13 Feb 05:13:05 05:14:09 11° 91° (E) 05:15:13 437.200
SO-50 13 Feb 05:20:19 05:24:18 24° 316° (NW) 05:28:20 436.795
CUBESAT XI-V 13 Feb 05:21:43 05:26:12 45° 262° (W) 05:30:44 437.345
CUTE-I 13 Feb 05:28:08 05:32:34 26° 95° (E) 05:36:58 437.470
HORYU 2 13 Feb 05:31:26 05:34:57 23° 293° (WNW) 05:38:28 437.375
Cubesat XI-IV 13 Feb 05:42:41 05:47:35 35° 97° (E) 05:52:27 437.490
STRAND 1 13 Feb 05:50:40 05:55:34 48° 71° (ENE) 06:00:30 437.568
O/OREOS (USA 219) 13 Feb 06:13:21 06:16:40 21° 101° (E) 06:20:00 437.305
BRITE-PL 13 Feb 06:35:27 06:40:04 62° 100° (E) 06:44:18 437.365/2234.400
LilacSat-2 13 Feb 06:45:05 06:48:44 48° 286° (WNW) 06:52:23 437.200
DOVE 4 13 Feb 06:46:26 06:49:18 18° 93° (E) 06:52:08 437.250
AO-7 13 Feb 06:56:26 06:58:21 11° 318° (NW) 07:00:16 29.400- 29.500
PRISM 13 Feb 06:56:38 07:00:46 69° 75° (ENE) 07:04:57 437.425
CUTE-I 13 Feb 07:07:42 07:12:43 41° 291° (WNW) 07:17:43 437.470
CANX-2 13 Feb 07:13:11 07:16:01 17° 92° (E) 07:18:49 2200.000
Cosmos 2504 13 Feb 07:13:23 07:16:48 12° 304° (NW) 07:20:14 435.465 / 435.565
CINEMA 3 13 Feb 07:15:00 07:16:37 12° 91° (E) 07:18:14 145.822/145.860
HO-68 13 Feb 07:16:01 07:21:50 26° 94° (E) 07:27:36 435.675
GOMX 1 13 Feb 07:22:35 07:26:57 83° 286° (WNW) 07:31:07 467.674
Cubesat XI-IV 13 Feb 07:22:53 07:27:33 31° 293° (WNW) 07:32:11 437.490
GONETS M04 13 Feb 07:29:16 07:36:46 34° 84° (E) 07:44:18
STRAND 1 13 Feb 07:31:17 07:34:58 20° 267° (W) 07:38:42 437.568
COMPASS 1 13 Feb 07:42:07 07:44:54 17° 92° (E) 07:47:40 437.405
O/OREOS (USA 219) 13 Feb 07:51:39 07:55:48 36° 298° (WNW) 08:00:00 437.305
SEEDS 13 Feb 08:02:01 08:06:02 38° 98° (E) 08:10:01 437.485
CUTE 1.7 + AOD 2 13 Feb 08:02:04 08:06:17 52° 100° (E) 08:10:29 437.475
AAUSAT CUBESAT 2 13 Feb 08:06:35 08:10:08 26° 95° (E) 08:13:40 437.432
Oscar 11 13 Feb 08:10:35 08:12:12 12° 90° (E) 08:13:49 145.826/435.025
Cosmos 2499 13 Feb 08:11:40 08:18:50 29° 82° (E) 08:26:03 435.465 / 435.565
BRITE-PL 13 Feb 08:15:46 08:17:55 13° 299° (WNW) 08:19:59 437.365/2234.400
DOVE 4 13 Feb 08:23:21 08:27:10 34° 289° (WNW) 08:30:55 437.250
UWE-3 13 Feb 08:25:18 08:28:24 20° 94° (E) 08:31:33 435.000/436.395/437.385
CUBEBUG 2 13 Feb 08:31:54 08:35:42 32° 97° (E) 08:39:33 437.445
AO-85 13 Feb 08:40:26 08:45:14 35° 113° (ESE) 08:50:13 145.980
CANX-2 13 Feb 08:48:00 08:52:03 41° 288° (WNW) 08:56:05 2200.000
CINEMA 3 13 Feb 08:50:02 08:54:05 53° 286° (WNW) 08:58:11 145.822/145.860
DELFI C3 13 Feb 08:51:41 08:54:27 18° 93° (E) 08:57:12 145.870
UNISAT 6 13 Feb 08:55:16 08:59:03 30° 70° (ENE) 09:02:47 437.425
HO-68 13 Feb 09:02:53 09:09:56 60° 291° (WNW) 09:16:58 435.675
QB50P1 13 Feb 09:08:47 09:09:13 10° 62° (ENE) 09:09:39 145.935-145.965
ZACube-1 13 Feb 09:10:07 09:14:11 43° 99° (E) 09:18:18 437.345
COMPASS 1 13 Feb 09:16:41 09:20:38 39° 288° (WNW) 09:24:34 437.405
FUNcube-1 13 Feb 09:17:09 09:21:16 49° 100° (E) 09:25:28 145.935
GONETS M04 13 Feb 09:24:50 09:33:13 51° 284° (WNW) 09:41:41
AIST 1 13 Feb 09:26:17 09:30:09 31° 90° (E) 09:34:02
PCSat 13 Feb 09:27:46 09:32:54 47° 113° (ESE) 09:38:06 145.827
RS-15 13 Feb 09:30:25 09:39:37 32° 104° (ESE) 09:49:10 29.354- 29.394
SEEDS 13 Feb 09:38:30 09:41:26 18° 294° (WNW) 09:44:23 437.485
CUTE 1.7 + AOD 2 13 Feb 09:39:23 09:41:41 14° 296° (WNW) 09:44:00 437.475
ANTELSAT 13 Feb 09:39:37 09:43:55 85° 257° (WSW) 09:48:12 437.575/2403.000
AAUSAT CUBESAT 2 13 Feb 09:42:04 09:45:33 26° 291° (WNW) 09:49:02 437.432
BUGSAT 1 13 Feb 09:42:47 09:44:21 12° 63° (ENE) 09:45:54 437.445
Oscar 11 13 Feb 09:44:24 09:48:42 60° 286° (WNW) 09:52:59 145.826/435.025
TIGRISAT 13 Feb 09:45:11 09:49:29 77° 258° (WSW) 09:53:45 435.000
POLYITAN 1 13 Feb 09:59:04 10:02:58 37° 71° (ENE) 10:06:51 437.675
QB50P2 13 Feb 09:59:29 10:03:24 38° 72° (ENE) 10:07:20 145.880/145.840
UWE-3 13 Feb 10:01:07 10:04:57 34° 289° (WNW) 10:08:51 435.000/436.395/437.385
Cosmos 2499 13 Feb 10:02:38 10:11:19 63° 282° (WNW) 10:20:08 435.465 / 435.565
CUBEBUG 2 13 Feb 10:08:57 10:12:10 21° 292° (WNW) 10:15:25 437.445
AO-85 13 Feb 10:20:45 10:25:45 37° 311° (NW) 10:30:52 145.980
DELFI C3 13 Feb 10:25:46 10:29:28 35° 289° (WNW) 10:33:08 145.870
POPSAT HIP 1 13 Feb 10:27:53 10:32:06 78° 76° (ENE) 10:36:20 437.405
ESTCUBE 1 13 Feb 10:29:07 10:32:31 20° 94° (E) 10:35:52 437.505/2401.250
DUCHIFAT 1 13 Feb 10:29:50 10:34:03 76° 74° (ENE) 10:38:15 145.980
NANOSAT C BR1 13 Feb 10:30:08 10:34:21 81° 78° (ENE) 10:38:35 145.865
HUMSAT D 13 Feb 10:32:03 10:36:15 76° 284° (WNW) 10:40:28 437.325/437.525
UNISAT 6 13 Feb 10:32:26 10:35:48 22° 265° (W) 10:39:09 437.425
QB50P1 13 Feb 10:40:10 10:44:23 75° 256° (WSW) 10:48:37 145.935-145.965
JAS-2 13 Feb 10:45:29 10:47:12 11° 55° (NE) 10:48:53 435.910
ZACube-1 13 Feb 10:47:26 10:50:10 17° 294° (WNW) 10:52:54 437.345
HO-68 13 Feb 10:53:53 10:56:11 12° 311° (NW) 10:58:30 435.675
FUNcube-1 13 Feb 10:54:44 10:57:09 15° 295° (WNW) 10:59:34 145.935
AIST 1 13 Feb 11:04:20 11:07:46 22° 287° (WNW) 11:11:13
VELOX 1 13 Feb 11:10:19 11:14:35 47° 100° (E) 11:18:49 145.980
PCSat 13 Feb 11:11:57 11:16:31 27° 311° (NW) 11:21:07 145.827
BUGSAT 1 13 Feb 11:15:05 11:19:14 62° 259° (W) 11:23:21 437.445
UKube-1 13 Feb 11:19:07 11:23:23 54° 101° (E) 11:27:35 .
CUSAT 1 13 Feb 11:20:27 11:24:56 26° 66° (ENE) 11:28:31 437.405
SPROUT 13 Feb 11:22:32 11:25:39 19° 94° (E) 11:28:43 437.525
50 SAT 13 Feb 11:26:39 11:30:27 78° 284° (WNW) 11:34:16 437.505
AISAT 13 Feb 11:27:36 11:32:02 79° 103° (ESE) 11:36:25 437.250
POLYITAN 1 13 Feb 11:36:00 11:38:53 18° 267° (W) 11:41:49 437.675
CUBEBUG 1 13 Feb 11:36:04 11:40:27 80° 103° (ESE) 11:44:46 437.445
QB50P2 13 Feb 11:36:31 11:39:21 17° 267° (W) 11:42:12 145.880/145.840
DX 1 13 Feb 11:38:03 11:42:24 78° 285° (WNW) 11:46:43 434.975-435.025
RS-15 13 Feb 11:39:48 11:50:56 73° 306° (NW) 12:02:46 29.354- 29.394
Oscar 19 13 Feb 11:45:47 11:50:18 31° 67° (ENE) 11:54:49 437.125/150
Cosmos 2499 13 Feb 12:02:46 12:06:24 13° 303° (WNW) 12:10:03 435.465 / 435.565
ESTCUBE 1 13 Feb 12:05:14 12:09:26 37° 289° (WNW) 12:13:36 437.505/2401.250
SO-50 13 Feb 12:10:41 12:15:18 43° 51° (NE) 12:19:45 436.795
YUBILEINY 13 Feb 12:13:44 12:19:56 20° 63° (ENE) 12:26:03 435.215
AO-7 13 Feb 12:20:04 12:22:40 12° 43° (NE) 12:25:17 29.400- 29.500
JAS-2 13 Feb 12:23:42 12:31:05 59° 72° (ENE) 12:37:46 435.910
DANDE 13 Feb 12:25:29 12:32:06 63° 76° (ENE) 12:36:58 436.750
Gurwin Techsat 1B 13 Feb 12:47:38 12:52:40 45° 70° (ENE) 12:57:42 435.225
VELOX 1 13 Feb 12:47:55 12:50:40 16° 296° (WNW) 12:53:25 145.980
TISAT 1 13 Feb 12:51:28 12:55:38 71° 101° (E) 12:59:47 437.305
UKube-1 13 Feb 12:56:39 12:58:58 14° 297° (WNW) 13:01:17 .
SPROUT 13 Feb 12:57:50 13:01:43 35° 289° (WNW) 13:05:34 437.525
CUSAT 1 13 Feb 13:02:46 13:07:11 28° 274° (W) 13:10:40 437.405
ITAMSAT 1 13 Feb 13:03:08 13:07:44 33° 67° (ENE) 13:12:21 435.822/435.867
AISAT 13 Feb 13:07:05 13:07:52 10° 299° (WNW) 13:08:38 437.250
SWISSCUBE 13 Feb 13:07:49 13:11:26 21° 94° (E) 13:15:00 437.505
CUBEBUG 1 13 Feb 13:15:55 13:16:04 10° 299° (WNW) 13:16:13 437.445
Oscar 19 13 Feb 13:25:00 13:29:34 31° 264° (W) 13:34:09 437.125/150
ITUPSAT 1 13 Feb 13:46:01 13:50:39 45° 99° (E) 13:55:15 437.325
BEESAT 13 Feb 13:51:47 13:56:29 53° 100° (E) 14:01:09 436.000
SO-50 13 Feb 13:51:48 13:55:30 23° 249° (WSW) 13:59:06 436.795
RS-15 13 Feb 13:56:32 14:05:57 28° 335° (NNW) 14:15:48 29.354- 29.394
AO-7 13 Feb 14:05:31 14:13:30 52° 64° (ENE) 14:21:31 29.400- 29.500
YUBILEINY 13 Feb 14:09:01 14:17:55 86° 264° (W) 14:26:42 435.215
JAS-2 13 Feb 14:10:09 14:16:18 27° 266° (W) 14:22:04 435.910
DANDE 13 Feb 14:10:11 14:13:55 17° 282° (WNW) 14:17:07 436.750
Cosmos 2491 13 Feb 14:15:13 14:23:39 57° 90° (E) 14:32:05 435.465 / 435.565
ISS 13 Feb 14:25:12 14:28:27 89° 334° (NNW) 14:31:43 145.825
KKS-1 13 Feb 14:28:06 14:30:56 17° 93° (E) 14:33:45 437.445
Gurwin Techsat 1B 13 Feb 14:28:41 14:32:48 23° 267° (W) 14:36:56 435.225
TISAT 1 13 Feb 14:29:54 14:30:43 10° 298° (WNW) 14:31:31 437.305
ITAMSAT 1 13 Feb 14:42:40 14:47:10 30° 264° (W) 14:51:43 435.822/435.867
SWISSCUBE 13 Feb 14:44:52 14:49:23 41° 290° (WNW) 14:53:52 437.505
MOZHAYETS 4 13 Feb 14:51:26 14:53:23 12° 90° (E) 14:55:19
HORYU 2 13 Feb 14:52:29 14:56:19 30° 69° (ENE) 15:00:10 437.375
Cosmos 2504 13 Feb 15:06:26 15:14:45 52° 76° (ENE) 15:22:27 435.465 / 435.565
M-CUBED/EXP-1 PRIME 13 Feb 15:19:18 15:22:52 69° 254° (WSW) 15:26:14 437.505
ITUPSAT 1 13 Feb 15:24:40 15:28:10 20° 296° (WNW) 15:31:39 437.325
AUBIESAT-1 13 Feb 15:25:25 15:28:57 72° 253° (WSW) 15:32:21 437.475
BEESAT 13 Feb 15:30:42 15:33:51 18° 297° (WNW) 15:36:58 436.000
STARS 13 Feb 15:35:28 15:39:43 48° 100° (E) 15:43:56 437.465
BEESAT 3 13 Feb 15:46:01 15:49:53 54° 118° (ESE) 15:53:48 437.485
AO-7 13 Feb 15:58:56 16:06:27 36° 262° (W) 16:14:00 29.400- 29.500
ISS 13 Feb 16:02:52 16:05:16 19° 342° (NNW) 16:07:39 145.825
KKS-1 13 Feb 16:03:30 16:07:43 44° 288° (WNW) 16:11:55 437.445
YUBILEINY 13 Feb 16:08:21 16:13:17 17° 284° (WNW) 16:18:14 435.215
BRITE-PL 13 Feb 16:11:32 16:12:28 10° 59° (ENE) 16:13:23 437.365/2234.400
Cosmos 2491 13 Feb 16:13:25 16:20:53 31° 291° (WNW) 16:28:26 435.465 / 435.565
RS-15 13 Feb 16:15:17 16:24:04 23° 11° (N) 16:33:03 29.354- 29.394
BEESAT 2 13 Feb 16:17:32 16:21:33 78° 119° (ESE) 16:25:34 435.950
O/OREOS (USA 219) 13 Feb 16:22:18 16:26:38 39° 63° (ENE) 16:30:56 437.305
MOZHAYETS 4 13 Feb 16:26:21 16:30:58 64° 286° (WNW) 16:35:34
HORYU 2 13 Feb 16:29:17 16:32:52 24° 265° (W) 16:36:29 437.375
CUTE-I 13 Feb 16:49:34 16:54:30 41° 69° (ENE) 16:59:30 437.470
GOMX 1 13 Feb 16:54:44 16:57:03 13° 62° (ENE) 16:59:20 467.674
Cosmos 2504 13 Feb 17:00:27 17:07:41 33° 277° (W) 17:14:30 435.465 / 435.565
Cubesat XI-IV 13 Feb 17:04:20 17:09:31 56° 71° (ENE) 17:14:45 437.490
AIST 2 13 Feb 17:07:54 17:11:22 26° 113° (ESE) 17:14:50 435.215
AO-85 13 Feb 17:12:47 17:17:21 30° 46° (NE) 17:21:35 145.980
STARS 13 Feb 17:13:02 17:15:42 16° 296° (WNW) 17:18:22 437.465
CUBESAT XI-V 13 Feb 17:18:23 17:22:55 45° 99° (E) 17:27:23 437.345
BEESAT 3 13 Feb 17:25:24 17:27:58 16° 316° (NW) 17:30:33 437.485
LilacSat-2 13 Feb 17:26:29 17:30:16 75° 76° (ENE) 17:34:04 437.200
GONETS M04 13 Feb 17:40:08 17:45:20 17° 60° (ENE) 17:50:31
ISS 13 Feb 17:41:15 17:42:41 12° 2° (N) 17:44:07 145.825
BRITE-PL 13 Feb 17:44:23 17:50:02 72° 75° (ENE) 17:55:30 437.365/2234.400
HO-68 13 Feb 17:45:42 17:50:39 20° 56° (NE) 17:55:36 435.675
DOVE 4 13 Feb 17:51:11 17:54:59 22° 68° (ENE) 17:58:38 437.250
BEESAT 2 13 Feb 17:58:01 17:59:57 13° 319° (NW) 18:01:53 435.950
O/OREOS (USA 219) 13 Feb 18:02:23 18:05:43 20° 259° (W) 18:09:04 437.305
STRAND 1 13 Feb 18:02:34 18:05:49 17° 92° (E) 18:09:03 437.568
CANX-2 13 Feb 18:07:07 18:08:52 12° 63° (ENE) 18:10:38 2200.000
PCSat 13 Feb 18:15:48 18:20:50 37° 53° (NE) 18:25:50 145.827
CINEMA 3 13 Feb 18:16:50 18:18:50 13° 64° (ENE) 18:20:47 145.822/145.860
GOMX 1 13 Feb 18:29:09 18:34:32 83° 258° (WSW) 18:39:38 467.674
RS-15 13 Feb 18:29:14 18:40:47 46° 43° (NE) 18:52:29 29.354- 29.394
CUTE-I 13 Feb 18:30:20 18:34:40 25° 266° (W) 18:39:03 437.470
COMPASS 1 13 Feb 18:34:13 18:35:48 12° 63° (ENE) 18:37:22 437.405
AIST 2 13 Feb 18:46:03 18:49:45 31° 310° (NW) 18:53:30 435.215
Cubesat XI-IV 13 Feb 18:46:20 18:49:56 18° 268° (W) 18:53:34 437.490
AO-85 13 Feb 18:53:16 18:57:57 38° 246° (WSW) 19:02:15 145.980
SEEDS 13 Feb 18:53:50 18:57:19 26° 69° (ENE) 19:00:50 437.485
CUTE 1.7 + AOD 2 13 Feb 18:54:34 18:58:24 35° 71° (ENE) 19:02:16 437.475
CUBESAT XI-V 13 Feb 18:56:41 18:59:57 19° 295° (WNW) 19:03:11 437.345
AAUSAT CUBESAT 2 13 Feb 18:57:26 19:00:12 18° 66° (ENE) 19:02:59 437.432
ISS 13 Feb 19:17:25 19:20:02 22° 22° (NNE) 19:22:40 145.825
UWE-3 13 Feb 19:23:00 19:25:34 16° 65° (ENE) 19:28:05 435.000/436.395/437.385
BRITE-PL 13 Feb 19:25:39 19:28:54 16° 270° (W) 19:32:07 437.365/2234.400
DOVE 4 13 Feb 19:27:44 19:32:27 40° 262° (W) 19:36:57 437.250
CUBEBUG 2 13 Feb 19:30:09 19:33:42 26° 69° (ENE) 19:37:12 437.445
HO-68 13 Feb 19:30:20 19:37:31 82° 255° (WSW) 19:44:46 435.675
GONETS M04 13 Feb 19:34:49 19:43:41 80° 82° (E) 19:52:32
DELFI C3 13 Feb 19:39:47 19:40:46 11° 63° (ENE) 19:41:44 145.870
CANX-2 13 Feb 19:40:04 19:44:12 60° 259° (W) 19:48:24 2200.000
STRAND 1 13 Feb 19:40:17 19:45:21 58° 288° (WNW) 19:50:24 437.568
CINEMA 3 13 Feb 19:51:00 19:55:31 63° 259° (W) 19:59:52 145.822/145.860
Cosmos 2499 13 Feb 19:55:10 20:03:11 49° 75° (ENE) 20:10:32 435.465 / 435.565
PCSat 13 Feb 19:59:22 20:04:08 32° 251° (WSW) 20:08:53 145.827
ZACube-1 13 Feb 20:05:59 20:09:42 32° 71° (ENE) 20:13:23 437.345
COMPASS 1 13 Feb 20:06:44 20:10:50 61° 259° (W) 20:14:59 437.405
FUNcube-1 13 Feb 20:12:39 20:16:28 36° 71° (ENE) 20:20:16 145.935
PRISM 13 Feb 20:13:50 20:18:00 70° 285° (WNW) 20:22:07 437.425
SEEDS 13 Feb 20:29:30 20:32:58 25° 265° (W) 20:36:28 437.485
CUTE 1.7 + AOD 2 13 Feb 20:31:22 20:34:21 19° 267° (W) 20:37:22 437.475
AAUSAT CUBESAT 2 13 Feb 20:31:33 20:35:24 38° 262° (W) 20:39:19 437.432
Oscar 11 13 Feb 20:38:29 20:42:47 82° 259° (W) 20:47:07 145.826/435.025
RS-15 13 Feb 20:41:54 20:53:48 62° 247° (WSW) 21:05:48 29.354- 29.394
ISS 13 Feb 20:53:30 20:56:42 60° 220° (SW) 20:59:53 145.825
UWE-3 13 Feb 20:57:40 21:01:42 43° 261° (W) 21:05:41 435.000/436.395/437.385
CUBEBUG 2 13 Feb 21:06:44 21:10:17 25° 264° (W) 21:13:47 437.445
AIST 1 13 Feb 21:10:26 21:14:47 89° 89° (E) 21:19:05
DELFI C3 13 Feb 21:11:12 21:15:08 62° 260° (W) 21:19:07 145.870
HUMSAT D 13 Feb 21:22:58 21:27:01 70° 75° (ENE) 21:31:05 437.325/437.525
HO-68 13 Feb 21:22:58 21:26:13 13° 272° (W) 21:29:29 435.675
ESTCUBE 1 13 Feb 21:28:46 21:31:59 19° 65° (ENE) 21:35:12 437.505/2401.250
ANTELSAT 13 Feb 21:32:05 21:35:20 20° 94° (E) 21:38:36 437.575/2403.000
GONETS M04 13 Feb 21:33:25 21:39:24 21° 281° (W) 21:45:24
TIGRISAT 13 Feb 21:37:20 21:40:42 21° 95° (E) 21:44:07 435.000
ZACube-1 13 Feb 21:42:58 21:46:03 20° 266° (W) 21:49:08 437.345
Cosmos 2499 13 Feb 21:48:52 21:55:54 33° 276° (W) 22:02:30 435.465 / 435.565
FUNcube-1 13 Feb 21:50:01 21:52:51 18° 267° (W) 21:55:40 145.935
50 SAT 13 Feb 22:06:26 22:09:58 45° 73° (ENE) 22:13:33 437.505
VELOX 1 13 Feb 22:07:15 22:11:27 41° 71° (ENE) 22:15:39 145.980
UKube-1 13 Feb 22:13:18 22:17:25 44° 72° (ENE) 22:21:33 .
POPSAT HIP 1 13 Feb 22:14:54 22:16:42 12° 91° (E) 22:18:30 437.405
DUCHIFAT 1 13 Feb 22:16:25 22:18:01 12° 91° (E) 22:19:38 145.980
NANOSAT C BR1 13 Feb 22:16:43 22:18:37 13° 91° (E) 22:20:32 145.865
SPROUT 13 Feb 22:16:48 22:19:21 16° 65° (ENE) 22:21:55 437.525
UNISAT 6 13 Feb 22:22:52 22:27:15 73° 102° (ESE) 22:31:42 437.425
AISAT 13 Feb 22:24:27 22:28:54 68° 74° (ENE) 22:33:21 437.250
QB50P1 13 Feb 22:26:15 22:29:04 17° 93° (E) 22:31:53 145.935-145.965
CUBEBUG 1 13 Feb 22:31:24 22:35:47 64° 74° (ENE) 22:40:10 437.445
DX 1 13 Feb 22:32:54 22:37:17 87° 76° (ENE) 22:41:42 434.975-435.025
BUGSAT 1 13 Feb 22:58:11 23:00:58 18° 94° (E) 23:03:44 437.445
RS-15 13 Feb 22:59:42 23:03:40 12° 267° (W) 23:07:39 29.354- 29.394
ESTCUBE 1 13 Feb 23:04:11 23:08:29 42° 262° (W) 23:12:49 437.505/2401.250
ANTELSAT 13 Feb 23:08:07 23:12:08 36° 289° (WNW) 23:16:14 437.575/2403.000
TIGRISAT 13 Feb 23:13:31 23:17:27 33° 290° (WNW) 23:21:26 435.000
PHONESAT 2.4 13 Feb 23:14:09 23:17:14 39° 160° (SSE) 23:20:20 2401.200-2431.200
POLYITAN 1 13 Feb 23:19:36 23:23:48 73° 102° (ESE) 23:28:01 437.675
QB50P2 13 Feb 23:20:01 23:24:14 76° 101° (E) 23:28:27 145.880/145.840
TISAT 1 13 Feb 23:42:44 23:46:48 49° 73° (ENE) 23:50:53 437.305
50 SAT 13 Feb 23:43:04 23:44:14 11° 269° (W) 23:45:25 437.505
VELOX 1 13 Feb 23:45:02 23:48:05 18° 267° (W) 23:51:09 145.980
POPSAT HIP 1 13 Feb 23:48:43 23:52:49 53° 287° (WNW) 23:56:54 437.405
DUCHIFAT 1 13 Feb 23:49:58 23:54:03 55° 287° (WNW) 23:58:09 145.980
NANOSAT C BR1 13 Feb 23:50:35 23:54:40 51° 287° (WNW) 23:58:44 145.865
SPROUT 13 Feb 23:50:48 23:54:57 47° 261° (W) 23:59:06 437.525
UKube-1 13 Feb 23:50:58 23:53:41 16° 267° (W) 23:56:23 .
DANDE 13 Feb 23:51:26 23:56:02 16° 78° (ENE) 00:00:44 436.750
Oscar 19 14 Feb 00:00:45 00:01:09 10° 88° (E) 00:01:33 437.125/150
QB50P1 14 Feb 00:01:06 00:05:00 38° 289° (WNW) 00:08:52 145.935-145.965
UNISAT 6 14 Feb 00:02:03 00:03:24 11° 298° (WNW) 00:04:45 437.425
BEESAT 3 14 Feb 00:04:02 00:07:35 30° 50° (NE) 00:11:04 437.485
AISAT 14 Feb 00:04:37 00:05:50 11° 270° (W) 00:07:02 437.250
CUBEBUG 1 14 Feb 00:10:57 00:12:28 12° 270° (W) 00:14:00 437.445
SWISSCUBE 14 Feb 00:14:08 00:17:56 24° 66° (ENE) 00:21:44 437.505
CUSAT 1 14 Feb 00:19:26 00:26:55 43° 90° (E) 00:34:11 437.405
Cosmos 2491 14 Feb 00:26:13 00:33:26 28° 68° (ENE) 00:40:38 435.465 / 435.565
BUGSAT 1 14 Feb 00:32:49 00:36:27 33° 289° (WNW) 00:40:03 437.445
BEESAT 2 14 Feb 00:36:14 00:40:03 41° 53° (NE) 00:43:48 435.950
PHONESAT 2.4 14 Feb 00:51:04 00:54:21 85° 182° (S) 00:57:39 2401.200-2431.200
ITUPSAT 1 14 Feb 00:52:24 00:57:00 51° 72° (ENE) 01:01:39 437.325
BEESAT 14 Feb 00:57:47 01:02:27 59° 73° (ENE) 01:07:09 436.000
POLYITAN 1 14 Feb 00:58:21 00:59:01 10° 298° (WNW) 00:59:41 437.675
Gurwin Techsat 1B 14 Feb 01:05:01 01:08:35 18° 92° (E) 01:12:08 435.225
